Year,Month,Day,Hour,Minute,Value (Times are PST for windspeed in km/hr)
2014,07,02,00,00,2.90
2014,07,02,00,01,2.30
2014,07,02,00,02,1.60
2014,07,02,00,03,1.50
2014,07,02,00,04,0.20
2014,07,02,00,05,0.00
2014,07,02,00,06,0.00
2014,07,02,00,07,0.20
2014,07,02,00,08,0.10
2014,07,02,00,09,0.00
2014,07,02,00,10,0.00
2014,07,02,00,11,0.00
2014,07,02,00,12,0.00
2014,07,02,00,13,1.00
2014,07,02,00,14,0.60
2014,07,02,00,15,0.50
2014,07,02,00,16,0.20
2014,07,02,00,17,0.00
2014,07,02,00,18,0.00
2014,07,02,00,19,0.00
2014,07,02,00,20,0.00
2014,07,02,00,21,0.00
2014,07,02,00,22,0.00
2014,07,02,00,23,0.90
2014,07,02,00,24,0.00
2014,07,02,00,25,0.10
2014,07,02,00,26,0.00
2014,07,02,00,27,0.10
2014,07,02,00,28,1.30
2014,07,02,00,29,1.20
2014,07,02,00,30,0.00
2014,07,02,00,31,0.00
2014,07,02,00,32,0.00
2014,07,02,00,33,0.00
2014,07,02,00,34,0.50
2014,07,02,00,35,2.10
2014,07,02,00,36,2.00
2014,07,02,00,37,1.60
2014,07,02,00,38,0.50
2014,07,02,00,39,0.00
2014,07,02,00,40,0.00
2014,07,02,00,41,2.00
2014,07,02,00,42,4.30
2014,07,02,00,43,3.50
2014,07,02,00,44,5.50
2014,07,02,00,45,4.60
2014,07,02,00,46,2.30
2014,07,02,00,47,0.20
2014,07,02,00,48,1.50
2014,07,02,00,49,1.80
2014,07,02,00,50,4.10
2014,07,02,00,51,4.50
2014,07,02,00,52,2.90
2014,07,02,00,53,7.30
2014,07,02,00,54,7.80
2014,07,02,00,55,8.70
2014,07,02,00,56,7.40
2014,07,02,00,57,8.30
2014,07,02,00,58,8.30
2014,07,02,00,59,10.00
2014,07,02,01,00,8.70
2014,07,02,01,01,8.50
2014,07,02,01,02,9.40
2014,07,02,01,03,8.50
2014,07,02,01,04,10.20
2014,07,02,01,05,8.80
2014,07,02,01,06,8.40
2014,07,02,01,07,7.80
2014,07,02,01,08,8.00
2014,07,02,01,09,9.20
2014,07,02,01,10,9.70
2014,07,02,01,11,8.60
2014,07,02,01,12,7.60
2014,07,02,01,13,8.90
2014,07,02,01,14,9.50
2014,07,02,01,15,9.80
2014,07,02,01,16,8.20
2014,07,02,01,17,8.90
2014,07,02,01,18,6.60
2014,07,02,01,19,9.70
2014,07,02,01,20,11.60
2014,07,02,01,21,8.90
2014,07,02,01,22,8.70
2014,07,02,01,23,6.40
2014,07,02,01,24,9.70
2014,07,02,01,25,8.60
2014,07,02,01,26,8.40
2014,07,02,01,27,8.40
2014,07,02,01,28,7.70
2014,07,02,01,29,8.20
2014,07,02,01,30,6.50
2014,07,02,01,31,7.90
2014,07,02,01,32,7.10
2014,07,02,01,33,6.70
2014,07,02,01,34,6.70
2014,07,02,01,35,8.10
2014,07,02,01,36,9.20
2014,07,02,01,37,9.90
2014,07,02,01,38,8.90
2014,07,02,01,39,10.30
2014,07,02,01,40,11.90
2014,07,02,01,41,10.60
2014,07,02,01,42,10.70
2014,07,02,01,43,7.30
2014,07,02,01,44,10.30
2014,07,02,01,45,9.80
2014,07,02,01,46,10.00
2014,07,02,01,47,8.40
2014,07,02,01,48,10.00
2014,07,02,01,49,8.40
2014,07,02,01,50,5.70
2014,07,02,01,51,9.70
2014,07,02,01,52,8.60
2014,07,02,01,53,9.30
2014,07,02,01,54,8.50
2014,07,02,01,55,10.50
2014,07,02,01,56,10.30
2014,07,02,01,57,9.70
2014,07,02,01,58,9.40
2014,07,02,01,59,12.30
2014,07,02,02,00,10.30
2014,07,02,02,01,9.80
2014,07,02,02,02,12.60
2014,07,02,02,03,12.20
2014,07,02,02,04,10.80
2014,07,02,02,05,12.10
2014,07,02,02,06,11.60
2014,07,02,02,07,10.20
2014,07,02,02,08,13.10
2014,07,02,02,09,12.20
2014,07,02,02,10,11.70
2014,07,02,02,11,10.00
2014,07,02,02,12,11.90
2014,07,02,02,13,10.60
2014,07,02,02,14,12.20
2014,07,02,02,15,12.80
2014,07,02,02,16,11.00
2014,07,02,02,17,10.70
2014,07,02,02,18,12.60
2014,07,02,02,19,12.70
2014,07,02,02,20,10.70
2014,07,02,02,21,10.00
2014,07,02,02,22,10.10
2014,07,02,02,23,11.30
2014,07,02,02,24,10.30
2014,07,02,02,25,9.70
2014,07,02,02,26,7.80
2014,07,02,02,27,9.00
2014,07,02,02,28,7.40
2014,07,02,02,29,9.00
2014,07,02,02,30,8.20
2014,07,02,02,31,8.70
2014,07,02,02,32,10.40
2014,07,02,02,33,7.70
2014,07,02,02,34,6.60
2014,07,02,02,35,8.70
2014,07,02,02,36,6.90
2014,07,02,02,37,7.80
2014,07,02,02,38,5.80
2014,07,02,02,39,8.10
2014,07,02,02,40,9.50
2014,07,02,02,41,6.80
2014,07,02,02,42,9.60
2014,07,02,02,43,9.00
2014,07,02,02,44,7.70
2014,07,02,02,45,6.50
2014,07,02,02,46,6.70
2014,07,02,02,47,6.70
2014,07,02,02,48,9.90
2014,07,02,02,49,8.10
2014,07,02,02,50,7.70
2014,07,02,02,51,6.70
2014,07,02,02,52,7.20
2014,07,02,02,53,4.60
2014,07,02,02,54,6.40
2014,07,02,02,55,6.60
2014,07,02,02,56,3.80
2014,07,02,02,57,5.00
2014,07,02,02,58,4.20
2014,07,02,02,59,5.40
2014,07,02,03,00,4.30
2014,07,02,03,01,4.00
2014,07,02,03,02,3.80
2014,07,02,03,03,3.50
2014,07,02,03,04,5.00
2014,07,02,03,05,3.50
2014,07,02,03,06,4.40
2014,07,02,03,07,1.60
2014,07,02,03,08,2.70
2014,07,02,03,09,2.60
2014,07,02,03,10,4.00
2014,07,02,03,11,4.50
2014,07,02,03,12,3.50
2014,07,02,03,13,1.90
2014,07,02,03,14,1.80
2014,07,02,03,15,4.20
2014,07,02,03,16,2.20
2014,07,02,03,17,3.20
2014,07,02,03,18,4.30
2014,07,02,03,19,5.80
2014,07,02,03,20,4.00
2014,07,02,03,21,4.50
2014,07,02,03,22,5.10
2014,07,02,03,23,6.30
2014,07,02,03,24,6.20
2014,07,02,03,25,5.30
2014,07,02,03,26,10.20
2014,07,02,03,27,7.50
2014,07,02,03,28,6.40
2014,07,02,03,29,5.80
2014,07,02,03,30,6.80
2014,07,02,03,31,7.50
2014,07,02,03,32,7.40
2014,07,02,03,33,6.40
2014,07,02,03,34,7.40
2014,07,02,03,35,10.40
2014,07,02,03,36,9.60
2014,07,02,03,37,9.30
2014,07,02,03,38,11.60
2014,07,02,03,39,15.80
2014,07,02,03,40,13.90
2014,07,02,03,41,13.40
2014,07,02,03,42,10.90
2014,07,02,03,43,15.70
2014,07,02,03,44,13.10
2014,07,02,03,45,11.80
2014,07,02,03,46,13.70
2014,07,02,03,47,12.30
2014,07,02,03,48,14.50
2014,07,02,03,49,13.70
2014,07,02,03,50,10.20
2014,07,02,03,51,11.30
2014,07,02,03,52,15.40
2014,07,02,03,53,10.90
2014,07,02,03,54,8.40
2014,07,02,03,55,9.50
2014,07,02,03,56,8.00
2014,07,02,03,57,9.40
2014,07,02,03,58,12.80
2014,07,02,03,59,11.70
2014,07,02,04,00,9.10
2014,07,02,04,01,7.20
2014,07,02,04,02,9.60
2014,07,02,04,03,10.30
2014,07,02,04,04,12.30
2014,07,02,04,05,9.50
2014,07,02,04,06,5.90
2014,07,02,04,07,14.40
2014,07,02,04,08,16.10
2014,07,02,04,09,13.00
2014,07,02,04,10,9.00
2014,07,02,04,11,10.70
2014,07,02,04,12,10.00
2014,07,02,04,13,10.10
2014,07,02,04,14,7.70
2014,07,02,04,15,12.70
2014,07,02,04,16,13.20
2014,07,02,04,17,10.30
2014,07,02,04,18,11.90
2014,07,02,04,19,13.00
2014,07,02,04,20,18.00
2014,07,02,04,21,18.50
2014,07,02,04,22,15.20
2014,07,02,04,23,16.90
2014,07,02,04,24,14.50
2014,07,02,04,25,11.90
2014,07,02,04,26,12.40
2014,07,02,04,27,13.60
2014,07,02,04,28,13.80
2014,07,02,04,29,17.10
2014,07,02,04,30,18.40
2014,07,02,04,31,17.90
2014,07,02,04,32,18.10
2014,07,02,04,33,14.60
2014,07,02,04,34,14.20
2014,07,02,04,35,12.80
2014,07,02,04,36,14.30
2014,07,02,04,37,14.50
2014,07,02,04,38,15.60
2014,07,02,04,39,15.50
2014,07,02,04,40,13.90
2014,07,02,04,41,15.00
2014,07,02,04,42,17.30
2014,07,02,04,43,15.40
2014,07,02,04,44,15.40
2014,07,02,04,45,16.60
2014,07,02,04,46,14.10
2014,07,02,04,47,13.70
2014,07,02,04,48,10.70
2014,07,02,04,49,13.40
2014,07,02,04,50,14.50
2014,07,02,04,51,13.20
2014,07,02,04,52,14.30
2014,07,02,04,53,16.30
2014,07,02,04,54,19.50
2014,07,02,04,55,14.40
2014,07,02,04,56,12.10
2014,07,02,04,57,17.00
2014,07,02,04,58,19.60
2014,07,02,04,59,15.90
2014,07,02,05,00,16.90
2014,07,02,05,01,16.20
2014,07,02,05,02,18.40
2014,07,02,05,03,21.00
2014,07,02,05,04,19.20
2014,07,02,05,05,21.60
2014,07,02,05,06,15.80
2014,07,02,05,07,19.40
2014,07,02,05,08,16.80
2014,07,02,05,09,20.50
2014,07,02,05,10,18.00
2014,07,02,05,11,17.90
2014,07,02,05,12,20.10
2014,07,02,05,13,15.40
2014,07,02,05,14,14.80
2014,07,02,05,15,16.40
2014,07,02,05,16,16.90
2014,07,02,05,17,16.50
2014,07,02,05,18,15.50
2014,07,02,05,19,15.30
2014,07,02,05,20,18.50
2014,07,02,05,21,16.20
2014,07,02,05,22,19.40
2014,07,02,05,23,22.40
2014,07,02,05,24,22.50
2014,07,02,05,25,17.60
2014,07,02,05,26,19.30
2014,07,02,05,27,16.80
2014,07,02,05,28,16.20
2014,07,02,05,29,19.20
2014,07,02,05,30,16.70
2014,07,02,05,31,18.70
2014,07,02,05,32,16.40
2014,07,02,05,33,17.00
2014,07,02,05,34,18.80
2014,07,02,05,35,15.80
2014,07,02,05,36,18.50
2014,07,02,05,37,17.50
2014,07,02,05,38,22.30
2014,07,02,05,39,19.90
2014,07,02,05,40,17.90
2014,07,02,05,41,15.90
2014,07,02,05,42,18.50
2014,07,02,05,43,18.20
2014,07,02,05,44,16.20
2014,07,02,05,45,14.90
2014,07,02,05,46,17.80
2014,07,02,05,47,20.90
2014,07,02,05,48,19.10
2014,07,02,05,49,16.30
2014,07,02,05,50,17.50
2014,07,02,05,51,16.90
2014,07,02,05,52,16.80
2014,07,02,05,53,15.30
2014,07,02,05,54,21.20
2014,07,02,05,55,20.50
2014,07,02,05,56,17.30
2014,07,02,05,57,17.40
2014,07,02,05,58,17.60
2014,07,02,05,59,18.70
2014,07,02,06,00,16.20
2014,07,02,06,01,18.60
2014,07,02,06,02,18.10
2014,07,02,06,03,19.80
2014,07,02,06,04,19.40
2014,07,02,06,05,18.00
2014,07,02,06,06,17.50
2014,07,02,06,07,20.30
2014,07,02,06,08,18.80
2014,07,02,06,09,16.70
2014,07,02,06,10,20.10
2014,07,02,06,11,18.20
2014,07,02,06,12,17.30
2014,07,02,06,13,15.90
2014,07,02,06,14,17.50
2014,07,02,06,15,20.70
2014,07,02,06,16,21.20
2014,07,02,06,17,17.50
2014,07,02,06,18,18.60
2014,07,02,06,19,19.20
2014,07,02,06,20,18.30
2014,07,02,06,21,16.30
2014,07,02,06,22,23.70
2014,07,02,06,23,17.30
2014,07,02,06,24,16.00
2014,07,02,06,25,18.80
2014,07,02,06,26,19.70
2014,07,02,06,27,18.50
2014,07,02,06,28,21.90
2014,07,02,06,29,15.70
2014,07,02,06,30,19.10
2014,07,02,06,31,17.60
2014,07,02,06,32,15.40
2014,07,02,06,33,20.90
2014,07,02,06,34,16.70
2014,07,02,06,35,17.30
2014,07,02,06,36,17.00
2014,07,02,06,37,17.10
2014,07,02,06,38,21.60
2014,07,02,06,39,17.80
2014,07,02,06,40,19.40
2014,07,02,06,41,17.00
2014,07,02,06,42,17.80
2014,07,02,06,43,22.60
2014,07,02,06,44,19.80
2014,07,02,06,45,13.70
2014,07,02,06,46,14.30
2014,07,02,06,47,16.60
2014,07,02,06,48,17.30
2014,07,02,06,49,16.00
2014,07,02,06,50,14.50
2014,07,02,06,51,18.70
2014,07,02,06,52,16.10
2014,07,02,06,53,18.80
2014,07,02,06,54,16.70
2014,07,02,06,55,14.20
2014,07,02,06,56,17.30
2014,07,02,06,57,18.20
2014,07,02,06,58,18.60
2014,07,02,06,59,18.70
2014,07,02,07,00,15.40
2014,07,02,07,01,17.90
2014,07,02,07,02,16.50
2014,07,02,07,03,15.00
2014,07,02,07,04,14.80
2014,07,02,07,05,13.40
2014,07,02,07,06,20.50
2014,07,02,07,07,16.30
2014,07,02,07,08,11.90
2014,07,02,07,09,15.40
2014,07,02,07,10,14.90
2014,07,02,07,11,12.60
2014,07,02,07,12,16.60
2014,07,02,07,13,13.40
2014,07,02,07,14,13.60
2014,07,02,07,15,14.20
2014,07,02,07,16,12.70
2014,07,02,07,17,15.60
2014,07,02,07,18,12.20
2014,07,02,07,19,10.80
2014,07,02,07,20,12.90
2014,07,02,07,21,12.90
2014,07,02,07,22,15.50
2014,07,02,07,23,16.40
2014,07,02,07,24,11.20
2014,07,02,07,25,16.30
2014,07,02,07,26,13.90
2014,07,02,07,27,11.50
2014,07,02,07,28,13.10
2014,07,02,07,29,12.70
2014,07,02,07,30,13.90
2014,07,02,07,31,13.60
2014,07,02,07,32,9.60
2014,07,02,07,33,10.80
2014,07,02,07,34,10.50
2014,07,02,07,35,8.60
2014,07,02,07,36,12.50
2014,07,02,07,37,11.80
2014,07,02,07,38,13.30
2014,07,02,07,39,12.00
2014,07,02,07,40,13.50
2014,07,02,07,41,12.30
2014,07,02,07,42,11.10
2014,07,02,07,43,12.60
2014,07,02,07,44,13.50
2014,07,02,07,45,13.40
2014,07,02,07,46,11.70
2014,07,02,07,47,7.20
2014,07,02,07,48,11.30
2014,07,02,07,49,13.90
2014,07,02,07,50,11.90
2014,07,02,07,51,11.80
2014,07,02,07,52,13.20
2014,07,02,07,53,11.90
2014,07,02,07,54,14.10
2014,07,02,07,55,18.10
2014,07,02,07,56,17.20
2014,07,02,07,57,12.50
2014,07,02,07,58,11.80
2014,07,02,07,59,9.90
2014,07,02,08,00,13.50
2014,07,02,08,01,10.90
2014,07,02,08,02,14.30
2014,07,02,08,03,10.00
2014,07,02,08,04,10.70
2014,07,02,08,05,13.40
2014,07,02,08,06,12.70
2014,07,02,08,07,15.90
2014,07,02,08,08,14.60
2014,07,02,08,09,12.50
2014,07,02,08,10,12.30
2014,07,02,08,11,13.60
2014,07,02,08,12,12.20
2014,07,02,08,13,12.40
2014,07,02,08,14,12.20
2014,07,02,08,15,12.90
2014,07,02,08,16,12.60
2014,07,02,08,17,12.00
2014,07,02,08,18,14.60
2014,07,02,08,19,10.90
2014,07,02,08,20,14.40
2014,07,02,08,21,11.30
2014,07,02,08,22,14.60
2014,07,02,08,23,12.70
2014,07,02,08,24,11.90
2014,07,02,08,25,13.90
2014,07,02,08,26,11.70
2014,07,02,08,27,13.30
2014,07,02,08,28,12.20
2014,07,02,08,29,11.20
2014,07,02,08,30,11.20
2014,07,02,08,31,13.70
2014,07,02,08,32,11.70
2014,07,02,08,33,13.00
2014,07,02,08,34,12.20
2014,07,02,08,35,15.50
2014,07,02,08,36,14.70
2014,07,02,08,37,14.50
2014,07,02,08,38,15.30
2014,07,02,08,39,16.10
2014,07,02,08,40,19.60
2014,07,02,08,41,14.50
2014,07,02,08,42,13.90
2014,07,02,08,43,17.90
2014,07,02,08,44,16.60
2014,07,02,08,45,13.70
2014,07,02,08,46,15.40
2014,07,02,08,47,14.30
2014,07,02,08,48,18.20
2014,07,02,08,49,19.80
2014,07,02,08,50,14.60
2014,07,02,08,51,16.20
2014,07,02,08,52,15.20
2014,07,02,08,53,9.60
2014,07,02,08,54,13.60
2014,07,02,08,55,15.30
2014,07,02,08,56,14.10
2014,07,02,08,57,12.40
2014,07,02,08,58,13.20
2014,07,02,08,59,12.00
2014,07,02,09,00,17.60
2014,07,02,09,01,16.40
2014,07,02,09,02,15.20
2014,07,02,09,03,17.40
2014,07,02,09,04,15.60
2014,07,02,09,05,13.90
2014,07,02,09,06,15.90
2014,07,02,09,07,12.20
2014,07,02,09,08,15.00
2014,07,02,09,09,17.40
2014,07,02,09,10,14.80
2014,07,02,09,11,16.90
2014,07,02,09,12,12.20
2014,07,02,09,13,15.70
2014,07,02,09,14,14.60
2014,07,02,09,15,14.30
2014,07,02,09,16,17.50
2014,07,02,09,17,11.20
2014,07,02,09,18,10.80
2014,07,02,09,19,11.90
2014,07,02,09,20,13.80
2014,07,02,09,21,11.90
2014,07,02,09,22,14.50
2014,07,02,09,23,12.60
2014,07,02,09,24,15.80
2014,07,02,09,25,13.60
2014,07,02,09,26,16.50
2014,07,02,09,27,11.70
2014,07,02,09,28,15.10
2014,07,02,09,29,16.10
2014,07,02,09,30,20.10
2014,07,02,09,31,13.30
2014,07,02,09,32,15.30
2014,07,02,09,33,15.30
2014,07,02,09,34,18.20
2014,07,02,09,35,16.60
2014,07,02,09,36,14.40
2014,07,02,09,37,14.90
2014,07,02,09,38,14.70
2014,07,02,09,39,13.70
2014,07,02,09,40,15.80
2014,07,02,09,41,19.20
2014,07,02,09,42,16.50
2014,07,02,09,43,15.10
2014,07,02,09,44,19.10
2014,07,02,09,45,19.80
2014,07,02,09,46,17.70
2014,07,02,09,47,19.20
2014,07,02,09,48,16.00
2014,07,02,09,49,19.10
2014,07,02,09,50,16.20
2014,07,02,09,51,17.00
2014,07,02,09,52,19.50
2014,07,02,09,53,17.80
2014,07,02,09,54,16.50
2014,07,02,09,55,14.20
2014,07,02,09,56,19.30
2014,07,02,09,57,19.70
2014,07,02,09,58,18.20
2014,07,02,09,59,14.90
2014,07,02,10,00,11.60
2014,07,02,10,01,11.60
2014,07,02,10,02,13.20
2014,07,02,10,03,12.00
2014,07,02,10,04,17.00
2014,07,02,10,05,15.60
2014,07,02,10,06,16.60
2014,07,02,10,07,11.00
2014,07,02,10,08,14.50
2014,07,02,10,09,14.80
2014,07,02,10,10,17.00
2014,07,02,10,11,15.60
2014,07,02,10,12,11.70
2014,07,02,10,13,18.70
2014,07,02,10,14,12.30
2014,07,02,10,15,17.40
2014,07,02,10,16,15.70
2014,07,02,10,17,14.70
2014,07,02,10,18,12.90
2014,07,02,10,19,13.20
2014,07,02,10,20,13.50
2014,07,02,10,21,14.00
2014,07,02,10,22,10.70
2014,07,02,10,23,10.40
2014,07,02,10,24,9.30
2014,07,02,10,25,10.40
2014,07,02,10,26,13.80
2014,07,02,10,27,12.60
2014,07,02,10,28,13.90
2014,07,02,10,29,6.70
2014,07,02,10,30,9.00
2014,07,02,10,31,11.00
2014,07,02,10,32,16.70
2014,07,02,10,33,12.60
2014,07,02,10,34,8.30
2014,07,02,10,35,10.40
2014,07,02,10,36,9.60
2014,07,02,10,37,8.30
2014,07,02,10,38,8.20
2014,07,02,10,39,5.40
2014,07,02,10,40,9.40
2014,07,02,10,41,7.30
2014,07,02,10,42,7.70
2014,07,02,10,43,8.30
2014,07,02,10,44,10.00
2014,07,02,10,45,7.00
2014,07,02,10,46,4.20
2014,07,02,10,47,7.20
2014,07,02,10,48,5.70
2014,07,02,10,49,7.20
2014,07,02,10,50,9.70
2014,07,02,10,51,11.10
2014,07,02,10,52,10.00
2014,07,02,10,53,10.90
2014,07,02,10,54,11.00
2014,07,02,10,55,10.90
2014,07,02,10,56,7.50
2014,07,02,10,57,12.10
2014,07,02,10,58,9.10
2014,07,02,10,59,9.80
2014,07,02,11,00,9.70
2014,07,02,11,01,7.10
2014,07,02,11,02,6.80
2014,07,02,11,03,10.30
2014,07,02,11,04,9.00
2014,07,02,11,05,9.80
2014,07,02,11,06,8.20
2014,07,02,11,07,9.70
2014,07,02,11,08,10.90
2014,07,02,11,09,6.60
2014,07,02,11,10,7.20
2014,07,02,11,11,9.40
2014,07,02,11,12,7.80
2014,07,02,11,13,5.40
2014,07,02,11,14,8.40
2014,07,02,11,15,7.80
2014,07,02,11,16,8.50
2014,07,02,11,17,7.90
2014,07,02,11,18,11.40
2014,07,02,11,19,10.50
2014,07,02,11,20,7.90
2014,07,02,11,21,9.50
2014,07,02,11,22,10.10
2014,07,02,11,23,10.20
2014,07,02,11,24,8.70
2014,07,02,11,25,8.80
2014,07,02,11,26,5.20
2014,07,02,11,27,9.70
2014,07,02,11,28,17.70
2014,07,02,11,29,13.50
2014,07,02,11,30,15.40
2014,07,02,11,31,13.90
2014,07,02,11,32,12.60
2014,07,02,11,33,12.70
2014,07,02,11,34,16.60
2014,07,02,11,35,15.90
2014,07,02,11,36,16.20
2014,07,02,11,37,15.00
2014,07,02,11,38,13.20
2014,07,02,11,39,12.50
2014,07,02,11,40,11.60
2014,07,02,11,41,8.70
2014,07,02,11,42,8.40
2014,07,02,11,43,11.80
2014,07,02,11,44,12.50
2014,07,02,11,45,13.10
2014,07,02,11,46,14.80
2014,07,02,11,47,10.50
2014,07,02,11,48,5.90
2014,07,02,11,49,9.80
2014,07,02,11,50,8.50
2014,07,02,11,51,8.00
2014,07,02,11,52,8.00
2014,07,02,11,53,5.50
2014,07,02,11,54,10.50
2014,07,02,11,55,10.50
2014,07,02,11,56,9.50
2014,07,02,11,57,11.60
2014,07,02,11,58,11.10
2014,07,02,11,59,12.50
2014,07,02,12,00,11.10
2014,07,02,12,01,12.40
2014,07,02,12,02,11.60
2014,07,02,12,03,13.80
2014,07,02,12,04,11.20
2014,07,02,12,05,12.00
2014,07,02,12,06,10.80
2014,07,02,12,07,7.50
2014,07,02,12,08,13.30
2014,07,02,12,09,13.10
2014,07,02,12,10,8.30
2014,07,02,12,11,10.50
2014,07,02,12,12,10.60
2014,07,02,12,13,8.00
2014,07,02,12,14,9.40
2014,07,02,12,15,8.80
2014,07,02,12,16,7.50
2014,07,02,12,17,10.30
2014,07,02,12,18,11.20
2014,07,02,12,19,5.90
2014,07,02,12,20,8.10
2014,07,02,12,21,6.10
2014,07,02,12,22,5.80
2014,07,02,12,23,7.20
2014,07,02,12,24,10.10
2014,07,02,12,25,9.00
2014,07,02,12,26,10.70
2014,07,02,12,27,12.10
2014,07,02,12,28,8.40
2014,07,02,12,29,6.70
2014,07,02,12,30,12.00
2014,07,02,12,31,8.90
2014,07,02,12,32,8.20
2014,07,02,12,33,10.10
2014,07,02,12,34,9.00
2014,07,02,12,35,4.80
2014,07,02,12,36,7.90
2014,07,02,12,37,11.10
2014,07,02,12,38,9.30
2014,07,02,12,39,9.60
2014,07,02,12,40,12.20
2014,07,02,12,41,8.70
2014,07,02,12,42,8.20
2014,07,02,12,43,14.00
2014,07,02,12,44,11.30
2014,07,02,12,45,13.90
2014,07,02,12,46,10.90
2014,07,02,12,47,10.70
2014,07,02,12,48,13.60
2014,07,02,12,49,12.60
2014,07,02,12,50,13.30
2014,07,02,12,51,15.10
2014,07,02,12,52,13.30
2014,07,02,12,53,12.80
2014,07,02,12,54,13.90
2014,07,02,12,55,12.70
2014,07,02,12,56,11.90
2014,07,02,12,57,18.10
2014,07,02,12,58,12.70
2014,07,02,12,59,14.60
2014,07,02,13,00,14.20
2014,07,02,13,01,18.50
2014,07,02,13,02,19.70
2014,07,02,13,03,14.60
2014,07,02,13,04,17.70
2014,07,02,13,05,14.80
2014,07,02,13,06,15.10
2014,07,02,13,07,15.30
2014,07,02,13,08,12.60
2014,07,02,13,09,12.50
2014,07,02,13,10,18.50
2014,07,02,13,11,15.60
2014,07,02,13,12,20.90
2014,07,02,13,13,17.70
2014,07,02,13,14,14.20
2014,07,02,13,15,12.60
2014,07,02,13,16,13.40
2014,07,02,13,17,14.40
2014,07,02,13,18,14.70
2014,07,02,13,19,19.80
2014,07,02,13,20,14.70
2014,07,02,13,21,16.30
2014,07,02,13,22,12.20
2014,07,02,13,23,14.00
2014,07,02,13,24,15.30
2014,07,02,13,25,19.80
2014,07,02,13,26,17.90
2014,07,02,13,27,14.70
2014,07,02,13,28,17.00
2014,07,02,13,29,13.50
2014,07,02,13,30,14.70
2014,07,02,13,31,13.40
2014,07,02,13,32,13.10
2014,07,02,13,33,17.30
2014,07,02,13,34,12.60
2014,07,02,13,35,16.20
2014,07,02,13,36,14.90
2014,07,02,13,37,16.90
2014,07,02,13,38,12.50
2014,07,02,13,39,9.70
2014,07,02,13,40,11.60
2014,07,02,13,41,13.50
2014,07,02,13,42,9.70
2014,07,02,13,43,9.30
2014,07,02,13,44,11.30
2014,07,02,13,45,11.30
2014,07,02,13,46,5.70
2014,07,02,13,47,8.00
2014,07,02,13,48,6.90
2014,07,02,13,49,9.60
2014,07,02,13,50,11.20
2014,07,02,13,51,12.50
2014,07,02,13,52,14.30
2014,07,02,13,53,10.50
2014,07,02,13,54,11.60
2014,07,02,13,55,12.60
2014,07,02,13,56,12.60
2014,07,02,13,57,10.70
2014,07,02,13,58,8.80
2014,07,02,13,59,11.10
2014,07,02,14,00,9.30
2014,07,02,14,01,9.30
2014,07,02,14,02,10.50
2014,07,02,14,03,6.00
2014,07,02,14,04,11.60
2014,07,02,14,05,12.10
2014,07,02,14,06,10.90
2014,07,02,14,07,9.70
2014,07,02,14,08,14.10
2014,07,02,14,09,13.60
2014,07,02,14,10,13.00
2014,07,02,14,11,14.60
2014,07,02,14,12,11.80
2014,07,02,14,13,10.50
2014,07,02,14,14,10.50
2014,07,02,14,15,9.80
2014,07,02,14,16,15.10
2014,07,02,14,17,14.80
2014,07,02,14,18,6.40
2014,07,02,14,19,9.00
2014,07,02,14,20,12.10
2014,07,02,14,21,10.10
2014,07,02,14,22,14.80
2014,07,02,14,23,16.20
2014,07,02,14,24,13.60
2014,07,02,14,25,12.10
2014,07,02,14,26,7.50
2014,07,02,14,27,13.00
2014,07,02,14,28,9.70
2014,07,02,14,29,13.20
2014,07,02,14,30,10.60
2014,07,02,14,31,14.60
2014,07,02,14,32,8.50
2014,07,02,14,33,10.70
2014,07,02,14,34,9.40
2014,07,02,14,35,14.70
2014,07,02,14,36,10.90
2014,07,02,14,37,11.90
2014,07,02,14,38,15.70
2014,07,02,14,39,13.40
2014,07,02,14,40,7.80
2014,07,02,14,41,12.10
2014,07,02,14,42,15.60
2014,07,02,14,43,10.50
2014,07,02,14,44,15.50
2014,07,02,14,45,17.40
2014,07,02,14,46,13.30
2014,07,02,14,47,10.50
2014,07,02,14,48,13.60
2014,07,02,14,49,11.90
2014,07,02,14,50,9.50
2014,07,02,14,51,12.60
2014,07,02,14,52,11.00
2014,07,02,14,53,13.00
2014,07,02,14,54,11.30
2014,07,02,14,55,9.90
2014,07,02,14,56,18.10
2014,07,02,14,57,16.90
2014,07,02,14,58,11.30
2014,07,02,14,59,11.20
2014,07,02,15,00,10.60
2014,07,02,15,01,16.20
2014,07,02,15,02,13.30
2014,07,02,15,03,16.30
2014,07,02,15,04,17.90
2014,07,02,15,05,15.80
2014,07,02,15,06,16.00
2014,07,02,15,07,10.50
2014,07,02,15,08,12.60
2014,07,02,15,09,14.00
2014,07,02,15,10,11.40
2014,07,02,15,11,15.50
2014,07,02,15,12,16.90
2014,07,02,15,13,10.00
2014,07,02,15,14,13.70
2014,07,02,15,15,12.90
2014,07,02,15,16,14.00
2014,07,02,15,17,13.40
2014,07,02,15,18,14.60
2014,07,02,15,19,14.00
2014,07,02,15,20,15.80
2014,07,02,15,21,12.70
2014,07,02,15,22,13.30
2014,07,02,15,23,11.60
2014,07,02,15,24,6.50
2014,07,02,15,25,9.80
2014,07,02,15,26,15.60
2014,07,02,15,27,12.70
2014,07,02,15,28,15.30
2014,07,02,15,29,14.40
2014,07,02,15,30,14.10
2014,07,02,15,31,11.60
2014,07,02,15,32,11.10
2014,07,02,15,33,14.50
2014,07,02,15,34,19.50
2014,07,02,15,35,11.90
2014,07,02,15,36,12.00
2014,07,02,15,37,11.50
2014,07,02,15,38,11.90
2014,07,02,15,39,7.80
2014,07,02,15,40,10.00
2014,07,02,15,41,10.50
2014,07,02,15,42,11.90
2014,07,02,15,43,13.10
2014,07,02,15,44,13.30
2014,07,02,15,45,9.50
2014,07,02,15,46,10.50
2014,07,02,15,47,14.20
2014,07,02,15,48,13.40
2014,07,02,15,49,15.20
2014,07,02,15,50,7.00
2014,07,02,15,51,11.30
2014,07,02,15,52,10.00
2014,07,02,15,53,15.00
2014,07,02,15,54,14.60
2014,07,02,15,55,12.40
2014,07,02,15,56,16.20
2014,07,02,15,57,12.30
2014,07,02,15,58,15.10
2014,07,02,15,59,15.20
2014,07,02,16,00,17.30
2014,07,02,16,01,17.40
2014,07,02,16,02,17.50
2014,07,02,16,03,13.70
2014,07,02,16,04,16.30
2014,07,02,16,05,11.10
2014,07,02,16,06,13.40
2014,07,02,16,07,18.00
2014,07,02,16,08,15.60
2014,07,02,16,09,16.40
2014,07,02,16,10,11.30
2014,07,02,16,11,14.90
2014,07,02,16,12,15.50
2014,07,02,16,13,17.10
2014,07,02,16,14,19.10
2014,07,02,16,15,14.60
2014,07,02,16,16,14.50
2014,07,02,16,17,12.30
2014,07,02,16,18,14.80
2014,07,02,16,19,14.70
2014,07,02,16,20,17.70
2014,07,02,16,21,20.10
2014,07,02,16,22,16.20
2014,07,02,16,23,15.00
2014,07,02,16,24,14.50
2014,07,02,16,25,17.60
2014,07,02,16,26,17.70
2014,07,02,16,27,14.10
2014,07,02,16,28,15.50
2014,07,02,16,29,12.30
2014,07,02,16,30,11.80
2014,07,02,16,31,18.90
2014,07,02,16,32,14.20
2014,07,02,16,33,14.80
2014,07,02,16,34,20.20
2014,07,02,16,35,14.60
2014,07,02,16,36,13.10
2014,07,02,16,37,20.20
2014,07,02,16,38,18.50
2014,07,02,16,39,16.70
2014,07,02,16,40,18.60
2014,07,02,16,41,15.30
2014,07,02,16,42,20.20
2014,07,02,16,43,18.10
2014,07,02,16,44,19.90
2014,07,02,16,45,21.50
2014,07,02,16,46,14.10
2014,07,02,16,47,12.20
2014,07,02,16,48,18.20
2014,07,02,16,49,15.90
2014,07,02,16,50,14.20
2014,07,02,16,51,15.50
2014,07,02,16,52,15.20
2014,07,02,16,53,16.20
2014,07,02,16,54,23.80
2014,07,02,16,55,18.20
2014,07,02,16,56,16.30
2014,07,02,16,57,18.30
2014,07,02,16,58,19.50
2014,07,02,16,59,20.00
2014,07,02,17,00,18.50
2014,07,02,17,01,14.90
2014,07,02,17,02,15.90
2014,07,02,17,03,14.00
2014,07,02,17,04,14.60
2014,07,02,17,05,19.00
2014,07,02,17,06,14.30
2014,07,02,17,07,13.40
2014,07,02,17,08,18.50
2014,07,02,17,09,21.00
2014,07,02,17,10,12.40
2014,07,02,17,11,13.90
2014,07,02,17,12,19.20
2014,07,02,17,13,11.40
2014,07,02,17,14,13.90
2014,07,02,17,15,14.20
2014,07,02,17,16,15.20
2014,07,02,17,17,20.00
2014,07,02,17,18,14.50
2014,07,02,17,19,12.10
2014,07,02,17,20,14.40
2014,07,02,17,21,18.90
2014,07,02,17,22,16.70
2014,07,02,17,23,15.60
2014,07,02,17,24,19.10
2014,07,02,17,25,14.80
2014,07,02,17,26,16.50
2014,07,02,17,27,14.00
2014,07,02,17,28,15.50
2014,07,02,17,29,19.50
2014,07,02,17,30,18.60
2014,07,02,17,31,17.70
2014,07,02,17,32,17.80